Regional Weather Roundup
Issued by NWS

Home | Current Version | Previous Version | Graphics & Text | Print | Product List | Glossary On
Versions: 1 2 3 4 5 6 7 8 9 10 11 12 13 14 15 16 17 18 19 20 21 22 23 24 25 26 27 28 29 30 31 32 33 34 35 36 37 38 39 40 41 42 43 44 45 46 47 48 49 50
892
ASUS43 KMPX 270101
RWRMN
WEATHER ROUNDUP FOR MINNESOTA
NATIONAL WEATHER SERVICE TWIN CITIES/CHANHASSEN MN
800 PM CDT FRI MAY 26 2017


NOTE: "FAIR" INDICATES FEW OR NO CLOUDS BELOW 12,000 FEET WITH NO
SIGNIFICANT WEATHER AND/OR OBSTRUCTIONS TO VISIBILITY. N/A MEANS
CURRENT SKY AND/OR WEATHER CONDITIONS ARE NOT AVAILABLE.

MNZ060>063-068>070-270200-
   Twin Cities Metro

CITY           SKY/WX    TMP DP  RH WIND       PRES   REMARKS
TWIN CITIES    PTCLDY    75  48  38 W13       29.74R
ST PAUL        CLEAR     74  48  39 W12       29.74R
CRYSTAL        CLEAR     73  46  38 W10       29.73R
BLAINE         PTCLDY    75  48  38 W14       29.74R
LAKEVILLE      CLEAR     72  50  46 W8        29.75R
EDEN PRAIRIE   CLEAR     75  46  35 W9        29.74R
SOUTH ST PAUL  CLEAR     75  47  36 W5        29.74R
LAKE ELMO      FAIR      72  52  49 W9G17     29.75R
$$
MNZ001>005-007-008-013>017-022>024-027-028-270200-
   Northwest Minnesota

CITY           SKY/WX    TMP DP  RH WIND       PRES   REMARKS
BEMIDJI        CLEAR     65  43  44 W15G21    29.73R
HALLOCK        SUNNY     66  43  42 W13       29.68R
ROSEAU         CLEAR     64  46  52 W9G21     29.69R
WARROAD        PTCLDY    66  46  48 SW10G21   29.69R
CROOKSTON      CLEAR     66  45  45 W16       29.74R
FOSSTON        CLEAR     64  41  42 W9        29.75S
DETROIT LAKES  CLEAR     64  41  42 W14       29.78R
MOORHEAD       CLEAR     66  41  39 W12       29.77R
PARK RAPIDS    LGT RAIN  66  41  40 W14       29.74R
MAHNOMEN       FAIR      64  41  42 W15G21    29.76R
$$
MNZ006-009>011-018-025>026-270200-
   North Central Minnesota

CITY           SKY/WX    TMP DP  RH WIND       PRES   REMARKS
BAUDETTE       MOCLDY    66  44  45 W12G20    29.69R HAZE
FLAG ISLAND    CLEAR     64  43  45 W14G20    29.66R
INTL FALLS     MOCLDY    69  43  38 W7        29.68R
WASKISH        PTCLDY    63  52  67 W9        29.71R
BIG FORK       MOCLDY    70  45  40 SW9       29.71R
LONGVILLE      MOCLDY    70  45  40 SW8       29.73R
GRAND RAPIDS   MOCLDY    70  45  40 VRB6      29.74R
CRANE LAKE     MOCLDY    63  59  88 CALM      29.70R
ORR            PTCLDY    66  43  42 W3        29.68R
COOK           PTCLDY    70  45  40 SW5       29.70R
WALKER         FAIR      66  43  42 W10G17    29.73R
$$
MNZ012-019>021-037-270200-
   Northeast Minnesota

CITY           SKY/WX    TMP DP  RH WIND       PRES   REMARKS
DULUTH         PTCLDY    59  51  75 E9        29.72R
ELY            CLOUDY    61  54  77 SE8       29.73R
HIBBING        PTCLDY    69  43  38 W7        29.70R
EVELETH        CLEAR     71  36  28 W7        29.71R
DULUTH HARBOR  CLOUDY    48  46  93 NE6       29.74R
TWO HARBORS    PTCLDY    63  55  77 S5        29.71R
SILVER BAY     MOCLDY    57  55  94 E6        29.71S
GRAND MARAIS     N/A     50  46  86 NE8       29.75S
G MARAIS ARPRT MOCLDY    57  48  72 NW7       29.80R
$$
MNZ029>031-032-039>041-046>048-054>057-064-270200-
   West Central Minnesota

CITY           SKY/WX    TMP DP  RH WIND       PRES   REMARKS
FERGUS FALLS   CLEAR     64  45  48 NW16      29.76R
WHEATON        CLEAR     66  41  39 W12       29.81R
MORRIS         CLEAR     68  45  42 NW13      29.78R
ALEXANDRIA     CLEAR     66  43  43 W12       29.79R
ELBOW LAKE     FAIR      65  44  46 NW13      29.79R
WADENA         CLEAR     66  45  45 W10G17    29.76R
GLENWOOD       CLEAR     66  45  45 W12       29.79R
APPLETON       CLEAR     70  43  37 NW8       29.78S
BENSON         CLEAR     66  43  42 N9        29.80R
ORTONVILLE     CLEAR     66  45  45 NW6       29.79S
MADISON        CLEAR     72  46  40 NW10      29.79R
WILLMAR        FAIR      70  45  40 W10       29.80R
$$
MNZ033>034-036-042>043-049>051-058-059-270200-
   Central Minnesota

CITY           SKY/WX    TMP DP  RH WIND       PRES   REMARKS
ST CLOUD       CLEAR     69  48  47 W9        29.75R
SAUK CENTRE    FAIR      67  45  45 W10       29.78R
PAYNESVILLE    CLEAR     69  43  38 W7        29.78R
AITKIN         CLEAR     70  46  43 W6        29.72R
PINE RIVER     CLEAR     68  46  45 SW7       29.78R
BRAINERD       PTCLDY    70  43  37 W9        29.74R
STAPLES        CLEAR     66  41  39 W13       29.76R
LONG PRAIRIE   FAIR      68  43  40 W12G17    29.78R
LITTLE FALLS   CLEAR     70  41  35 W7        29.76R
LITCHFIELD     CLEAR     72  46  40 NW10      29.78S
BUFFALO        CLEAR     71  45  38 W10       29.77R
MAPLE LAKE     CLEAR     72  47  42 W7        29.77R
HUTCHINSON     CLEAR     72  48  42 W13       29.79R
$$
MNZ037-044-045-052-053-270200-
   East Central Minnesota

CITY           SKY/WX    TMP DP  RH WIND       PRES   REMARKS
PRINCETON      CLEAR     72  48  43 W6        29.75R
MORA           CLEAR     70  45  40 W8        29.75R
CAMBRIDGE      CLEAR     73  54  49 W7G16     29.73R
RUSH CITY      CLEAR     70  49  48 W7        29.74R
MOOSE LAKE     CLEAR     70  46  43 W3        29.71R
HINCKLEY       FAIR      70  50  49 W8        29.73R
CLOQUET        CLEAR     59  50  72 SE3       29.72R
MCGREGOR       CLEAR     70  43  37 W6        29.73R
$$
MNZ071>073-080-081-089-090-097-098-270200-
   Southwest Minnesota

CITY           SKY/WX    TMP DP  RH WIND       PRES   REMARKS
MONTEVIDEO     CLEAR     70  45  40 N8        29.79S
CANBY          CLEAR     68  46  45 NW8       29.81R
MARSHALL       CLEAR     70  44  39 NW13      29.80R
REDWOOD FALLS  CLEAR     70  44  39 W8        29.78R
OLIVIA         CLEAR     70  43  37 NW8       29.79R
PIPESTONE      CLEAR     70  32  24 NW8       29.83R
WINDOM         CLEAR     72  39  30 W12       29.82R
WORTHINGTON    CLEAR     68  44  42 W9        29.83R
JACKSON        CLEAR     70  43  37 NW6       29.82S
TRACY          CLEAR     71  45  39 NW6       29.81S
SLAYTON        CLEAR     69  41  36 W13       29.83R
$$
MNZ065>067-074>077-082>085-091>093-270200-
   South Central Minnesota

CITY           SKY/WX    TMP DP  RH WIND       PRES   REMARKS
MANKATO        CLEAR     73  47  39 W9        29.78R
NEW ULM        CLEAR     70  45  40 W10       29.79R
ST JAMES       CLEAR     72  46  40 NW12      29.80S
FAIRMONT       CLEAR     72  45  37 NW12      29.80R
GLENCOE        CLEAR     73  49  42 W10       29.77R
FARIBAULT      CLEAR     73  50  43 W8        29.77R
OWATONNA       CLEAR     75  48  38 W13       29.77R
WASECA         CLEAR     72  46  40 W13       29.79R
ALBERT LEA     PTCLDY    75  57  53 CALM      29.77R
$$
MNZ078>079-086>088-094>096-270200-
   Southeast Minnesota

CITY           SKY/WX    TMP DP  RH WIND       PRES   REMARKS
ROCHESTER      CLOUDY    69  58  67 S15       29.79R
RED WING       CLEAR     73  54  49 S9        29.74R
STANTON        CLEAR     74  50  42 W8        29.74R
DODGE CENTER   CLEAR     72  55  56 S13       29.78R
WINONA         CLOUDY    70  55  60 CALM      29.79R
AUSTIN         PTCLDY    70  57  64 SE8       29.78R
PRESTON        PTCLDY    67  56  67 S9        29.81R
$$
ABBREVIATIONS USED IN REMARKS
   TC - TEMPERATURES IN CELSIUS
  WCI - WIND CHILL INDEX
   HX - HEAT INDEX
  VSB - VISIBILITY
$$




USA.gov is the U.S. government's official web portal to all federal, state and local government web resources and services.